Location: Opava
(49.9500°N, 17.9170°E)
Time: 20:24:09
(UTC+01:00)

ISS - Visible Passes

Search period start: 14 December 2018 00:00
Search period end: 24 December 2018 00:00
Orbit: 401 x 408 km, 51.6° (Epoch: 15 December)

Date Brightness Start Highest point End Pass type
(mag) Time Alt. Az. Time Alt. Az. Time Alt. Az.
14 Dec -0.5 17:16:22 10° WSW 17:17:41 12° SW 17:18:59 10° SSW visible
15 Dec -0.7 16:23:22 10° W 16:25:46 19° SW 16:28:10 10° S visible
22 Dec -0.6 07:05:40 10° S 07:07:56 17° SE 07:10:12 10° E visible
23 Dec -0.2 06:15:07 10° SSE 06:15:56 11° SE 06:16:45 10° ESE visible
